Location: Castillon
(43.0896°N, 0.2156°E)
Time: 18:21:44
(UTC+00:00)

Cosmos 2333 Rocket - Pass Details

Date: 16 June 2021
Orbit: 841 x 861 km, 70.8° (Epoch: 31 July)

Event Time Altitude Azimuth Distance (km) Brightness Sun altitude
Exits shadow 21:09:00 18° 141° (SE) 1,998 3.5 -12.8°
Maximum altitude 21:11:45 25° 102° (ESE) 1,657 3.3 -13.1°
Drops below altitude 10° 21:16:19 10° 49° (NE) 2,494 4.7 -13.6°
Sets 21:19:09 0° 37° (NE) 3,431 5.6 -13.9°
